Home   Weather   The Hague   Past weeks
Flag for Netherlands

Past Weather in The Hague, Netherlands — Yesterday and Last 2 Weeks

Now
45 °F

Mostly cloudy.


Feels Like: 45 °F
Forecast: 47 / 39 °F
Wind: 2 mph from North

Location: Rotterdam Zestienhoven Airport

Current Time: Nov 18, 2019 at 3:03:37 pm

Latest Report: Nov 18, 2019 at 2:25 pm


Visibility: 4 mi

Pressure: 29.77 "Hg

Humidity: 93%

Dew Point: 43 °F

Location of The HagueLocation

Past Weather in The Hague — Graph

°F

The Hague Temperature Yesterday

Maximum temperature yesterday: 46 °F (at 12:25 pm)
Minimum temperature yesterday: 34 °F (at 6:25 am)
Average temperature yesterday: 41 °F

High & Low Weather Summary for the Past Weeks

 TemperatureHumidityPressure
High55 °F (Nov 4, 2:55 pm)100% (Nov 3, 5:55 pm)29.95 "Hg (Nov 3, 5:55 pm)
Low28 °F (Nov 10, 5:25 am)62% (Nov 10, 2:25 pm)29.03 "Hg (Nov 3, 1:25 pm)
Average44 °F89%29.56 "Hg
* Reported Nov 3 1:25 pm — Nov 18 1:55 pm, The Hague. Weather by CustomWeather, © 2019

Note: Actual official high and low records may vary slightly from our data, if they occured in-between our weather recording intervals... More about our weather records

Advertising

The Hague Weather History for the Previous 24 Hours

Scroll right to see more
 ConditionsComfort  
Time TempWeatherWind HumidityBarometerVisibility
1:55 pm
Mon, Nov 18
45 °FLow clouds.3 mph100%29.77 "Hg4 mi
1:25 pm45 °FFog.5 mph100%29.77 "Hg3 mi
12:55 pm45 °FFog.3 mph93%29.77 "Hg3 mi
12:25 pm45 °FLow clouds.3 mph93%29.77 "Hg4 mi
11:55 am45 °FDrizzle. Overcast.5 mph93%29.80 "Hg3 mi
11:25 am45 °FLight rain. More clouds than sun.3 mph93%29.80 "Hg4 mi
10:55 am43 °FDrizzle. Overcast.5 mph100%29.80 "Hg6 mi
10:25 am43 °FDrizzle. Overcast.6 mph100%29.80 "HgN/A
9:55 am41 °FDrizzle. Overcast.7 mph100%29.80 "Hg6 mi
9:25 am41 °FDrizzle. Overcast.7 mph93%29.80 "HgN/A
8:55 am41 °FDrizzle. Overcast.5 mph93%29.80 "HgN/A
8:25 am39 °FDrizzle. Overcast.3 mph100%29.80 "HgN/A
7:55 am39 °FDrizzle. Mostly cloudy.5 mph93%29.80 "Hg4 mi
7:25 am39 °FPassing clouds.5 mph93%29.80 "Hg6 mi
6:55 am39 °FPassing clouds.5 mph100%29.77 "HgN/A
6:25 am41 °FSprinkles. Passing clouds.5 mph93%29.80 "Hg6 mi
5:55 am39 °FLight rain. Passing clouds.5 mph100%29.80 "Hg5 mi
5:25 am39 °FLight rain. Low clouds.3 mph93%29.80 "Hg4 mi
4:55 am39 °FDrizzle. Overcast.1 mph93%29.80 "Hg4 mi
4:25 am39 °FDrizzle. Overcast.1 mph93%29.80 "HgN/A
3:55 am41 °FPartly cloudy.2 mph87%29.80 "HgN/A
3:25 am39 °FPassing clouds.3 mph93%29.80 "HgN/A
2:55 am39 °FPassing clouds.2 mph87%29.80 "HgN/A
2:25 am41 °FClear.6 mph81%29.80 "HgN/A
1:55 am41 °FClear.2 mph81%29.80 "HgN/A
1:25 am39 °FClear.2 mph87%29.80 "HgN/A
12:55 am39 °FClear.2 mph87%29.80 "HgN/A
12:25 am39 °FClear.3 mph93%29.80 "HgN/A
11:55 pm
Sun, Nov 17
39 °FClear.3 mph87%29.83 "HgN/A
11:25 pm37 °FClear.6 mph93%29.83 "HgN/A
10:55 pm39 °FClear.3 mph93%29.83 "HgN/A
10:25 pm39 °FClear.5 mph87%29.83 "HgN/A
9:55 pm39 °FClear.5 mph87%29.83 "HgN/A
9:25 pm37 °FClear.2 mph100%29.86 "HgN/A
8:55 pm37 °FClear.6 mph93%29.86 "HgN/A
8:25 pm39 °FClear.3 mph93%29.86 "HgN/A
7:55 pm39 °FClear.3 mph93%29.86 "HgN/A
7:25 pm37 °FClear.5 mph100%29.86 "HgN/A
6:55 pm39 °FClear.3 mph87%29.86 "HgN/A
6:25 pm41 °FClear.3 mph87%29.86 "HgN/A
5:55 pm41 °FClear.5 mph87%29.86 "HgN/A
5:25 pm41 °FClear.3 mph87%29.86 "HgN/A
4:55 pm41 °FClear.3 mph87%29.86 "HgN/A
4:25 pm43 °FClear.3 mph81%29.86 "HgN/A
3:55 pm43 °FClear.6 mph81%29.86 "HgN/A
3:25 pm45 °FClear.6 mph81%29.86 "HgN/A
Weather by CustomWeather, © 2019

See weather overview